www.pogodaiklimat.ru

Погода и климат >> Архив погоды >> Индия >> Jaisalmer


ПОГОДА в Jaisalmer

  • Прогноз погоды в Jaisalmer
  • Монитор погоды в Jaisalmer
  • Климат города

АРХИВ ПОГОДЫ в Jaisalmer

Время (UTC), дата Ветер
(напр.,м/с)
 
Видим.   Явления Облачность Т
(С)
Тd
(С)
f
(%)
Тe
(С)
Тes
(С)
Комфортность P
(гПа)
Po
(гПа)
Тmin
(С)
Tmax
(С)
R
(мм)
R24
(мм)
S
(см)
21 10.10 С 1 4000 м ясно +25.4 +7.3 32 +25 +25 комфорт 1006.4 1006.0
00 11.10 С 1 4000 м ясно +23.6 +8.2 37 +24 +24 комфорт 1006.6 1007.0
03 11.10 СВ 1 4000 м ясно +25.0 +9.8 38 +26 +28 жарко 1008.1 1008.0 +22.0 +35.8
06 11.10 СВ 1 4000 м ясно +33.0 +10.1 25 +32 +47 жарко 1008.0 1008.0
09 11.10 штиль 0 4000 м ясно +36.0 +6.9 17 +34 +49 очень
жарко
1005.2 1005.0
12 11.10 штиль 0 4000 м ясно +35.4 +6.3 17 +33 +35 жарко 1004.7 1005.0 +36.9
15 11.10 С 1 4000 м ясно +31.0 +3.1 17 +29 +29 жарко 1006.6 1007.0
18 11.10 С 1 4000 м ясно +28.2 +6.8 26 +27 +27 жарко 1008.1 1008.0
21 11.10 штиль 0 4000 м ясно +24.4 +10.8 42 +26 +26 жарко 1008.2 1008.0
00 12.10 штиль 0 4000 м ясно +22.0 +10.8 49 +24 +24 комфорт 1008.4 1008.0
03 12.10 штиль 0 2000 м мгла ясно +25.4 +8.3 34 +26 +29 жарко 1009.5 1010.0 +21.6 +36.9
06 12.10 В 1 2000 м мгла ясно +34.8 +8.2 20 +33 +48 жарко 1009.1 1009.0
09 12.10 СВ 3 4000 м ясно +37.4 +4.3 13 +34 +45 очень
жарко
1006.5 1007.0
12 12.10 СВ 1 4000 м ясно +36.0 +4.8 14 +33 +34 жарко 1005.9 1006.0 +38.0
18 12.10 СВ 2 4000 м ясно +28.2 +5.6 24 +27 +27 жарко 1008.8 1009.0
21 12.10 СВ 1 4000 м ясно +25.4 +7.8 33 +26 +26 жарко 1008.7 1009.0
00 13.10 В 2 4000 м ясно +24.4 +5.0 29 +24 +24 комфорт 1009.4 1009.0
03 13.10 В 1 4000 м ясно +25.8 +5.6 27 +25 +28 комфорт 1010.8 1011.0 +23.2 +38.0
06 13.10 В 2 4000 м ясно +35.4 +6.3 17 +33 +47 жарко 1010.3 1010.0
09 13.10 штиль 0 4000 м ясно +37.4 +5.8 14 +35 +50 очень
жарко
1007.5 1008.0
12 13.10 штиль 0 4000 м ясно +36.0 +3.3 13 +33 +34 жарко 1007.0 1007.0 +38.1
15 13.10 С 1 4000 м ясно +30.6 +3.7 18 +28 +28 жарко 1008.4 1008.0
18 13.10 штиль 0 4000 м ясно +27.6 +7.0 27 +27 +27 жарко 1009.2 1009.0
21 13.10 Ю 1 4000 м ясно +25.6 +5.9 28 +25 +25 комфорт 1008.5 1009.0
00 14.10 Ю 1 4000 м ясно +24.2 +6.4 32 +24 +24 комфорт 1008.6 1009.0
03 14.10 Ю 1 4000 м ясно +25.4 +4.3 26 +25 +27 комфорт 1009.9 1010.0 +22.0 +38.1
06 14.10 ЮЗ 2 4000 м ясно +35.8 +5.1 15 +33 +45 жарко 1009.4 1009.0
09 14.10 З 1 4000 м ясно +37.8 +2.2 11 +34 +47 очень
жарко
1006.6 1007.0
12 14.10 З 2 4000 м ясно +36.4 -0.9 9 +33 +33 жарко 1005.8 1006.0 +38.2
15 14.10 штиль 0 4000 м ясно +30.0 +5.2 21 +28 +28 жарко 1007.7 1008.0
18 14.10 С 1 4000 м ясно +27.6 +6.4 26 +27 +27 жарко 1008.5 1009.0
21 14.10 СВ 1 4000 м ясно +25.8 +6.8 30 +26 +26 жарко 1008.3 1008.0
00 15.10 штиль 0 4000 м ясно +23.4 +4.5 29 +23 +23 комфорт 1008.6 1009.0
03 15.10 штиль 0 4000 м 3/0
[Ci sp]
+23.8 +9.5 40 +25 +27 комфорт 1010.3 1010.0 +21.8 +38.2
06 15.10 штиль 0 4000 м 3/0
[Ci sp]
+35.6 +6.0 16 +33 +49 жарко 1009.5 1010.0
09 15.10 ЮЗ 2 4000 м 6/0
[Ci sp]
+37.4 +3.6 12 +34 +45 очень
жарко
1006.8 1007.0
12 15.10 ЮЗ 2 4000 м 8/0
[Ac trans Ci sp]
+36.0 +4.1 14 +33 +34 жарко 1006.2 1006.0 +38.2
15 15.10 ЮЗ 1 4000 м 6/0
[Ci sp]
+31.4 +6.0 20 +30 +30 жарко 1007.6 1008.0
18 15.10 штиль 0 4000 м 6/0
[Ci sp]
+28.0 +9.8 32 +28 +28 жарко 1008.7 1009.0
21 15.10 Ю 1 4000 м 4/0
[Ci sp]
+25.4 +7.3 32 +25 +25 комфорт 1008.3 1008.0
00 16.10 Ю 1 4000 м 5/0
[Ci sp]
+25.0 +6.6 31 +25 +25 комфорт 1008.2 1008.0
03 16.10 штиль 0 4000 м 9/1 900 м
[Sc Ac trans Ci sp]
+24.6 +11.1 43 +26 +27 жарко 1010.0 1010.0 +23.8 +38.2
06 16.10 нст 1 4000 м 6/0
[Ac trans Ci sp]
+33.0 +4.6 17 +31 +42 жарко 1009.3 1009.0
09 16.10 ЮЗ 2 4000 м 8/0
[Ac trans Ci sp]
+36.0 +4.1 14 +33 +40 жарко 1007.3 1007.0
12 16.10 З 3 4000 м 8/0
[Ac trans]
+35.2 +0.4 11 +32 +32 жарко 1006.7 1007.0 +37.0
15 16.10 СЗ 2 4000 м 6/0
[Ac trans Ci sp]
+31.0 +1.6 15 +28 +28 жарко 1008.2 1008.0
18 16.10 Ю 1 4000 м 3/0
[Ci sp]
+26.6 +4.6 24 +26 +26 жарко 1008.8 1009.0
21 16.10 Ю 1 4000 м ясно +25.0 +3.5 25 +24 +24 комфорт 1008.4 1008.0
00 17.10 СЗ 1 4000 м ясно +23.0 +6.7 35 +24 +24 комфорт 1008.8 1009.0
03 17.10 штиль 0 4000 м ясно +24.6 +9.2 38 +25 +28 комфорт 1009.8 1010.0 +22.1 +37.0
06 17.10 В 2 4000 м ясно +33.6 +3.8 15 +31 +44 жарко 1009.1 1009.0
09 17.10 З 2 4000 м ясно +36.0 +2.5 12 +33 +44 жарко 1006.4 1006.0
12 17.10 ЮЗ 2 4000 м ясно +35.0 +5.4 16 +32 +33 жарко 1006.3 1006.0 +37.2
15 17.10 СЗ 1 4000 м ясно +30.6 +2.2 16 +28 +28 жарко 1006.8 1007.0
18 17.10 С 1 4000 м ясно +26.8 +4.3 24 +26 +26 жарко 1007.5 1008.0

 

Местоположение метеостанции Jaisalmer (Rajasthan, Индия): широта 26.90 долгота 70.92 высота над уровнем моря 231 м.

В архиве по умолчанию представлена погода в Jaisalmer за последнюю неделю. Архивные данные за месяц целиком и за предыдущие месяцы, начиная с января 2011 года, Вы можете получить, выбрав интересующий диапазон дат из раскрывающегося списка и нажав кнопку "Ввод!".


*Определитесь, кто Вы:
робот инопланетянин человек

Внимание! Время в таблицах - всемирное. Для получения местного времени необходимо прибавить поправку, которая в Jaisalmer равна 5.5 ч.

Смотрите также архив погоды в соседних городах и на ближайших метеорологических станциях:

Погода в Barmer (Rajasthan, Индия) (136 км)
Погода в Chhor (Пакистан) (191 км)
Погода в Khanpur (Пакистан) (196 км)
Погода в Rohri (Пакистан) (217 км)
Погода в Jodhpur (Rajasthan, Индия) (219 км)
Погода в Nawabshah (Пакистан) (264 км)
Погода в Bikaner (Rajasthan, Индия) (265 км)
Погода в Pad Idan (Пакистан) (277 км)
Погода в Jacobabad (Пакистан) (287 км)
Погода в Bahawalpur (Пакистан) (291 км)

Пояснения к столбцам:

Ветер - указаны скорость ветра в м/с - средняя за 10 мин, порывы в срок и между сроками (в фигурных скобках) и направление, откуда дует ветер: С - северный, СВ - северо-восточный, В - восточный, ЮВ - юго-восточный, Ю - южный, ЮЗ - юго-западный, З - западный, СЗ - северо-западный.
Видимость - горизонтальная дальность видимости в метрах или километрах. При видимости от 1 до 10 км при отсутствии осадков обычно наблюдается дымка, при ухудшении видимости до 1 км и менее - туман. В сухую погоду видимость может ухудшаться дымом, пылью или мглою.
Явления - указаны атмосферные явления, наблюдавшиеся в срок или в последний час перед сроком; фигурными скобками обозначены явления, наблюдавшиеся между сроками (за 1-3 часа до срока); квадратными скобками обозначены град или гололедные отложения с указанием их диаметра в мм.
Облачность - указаны через наклонную черту общая и нижняя облачность в баллах и высота нижней границы облаков в метрах; квадратными скобками обозначены формы облаков: Ci - перистые, Cs - перисто-слоистые, Cc - перисто-кучевые, Ac - высококучевые, As - высокослоистые, Sc - слоисто-кучевые, Ns - слоисто-дождевые, Cu - кучевые, Cb - кучево-дождевые. Подробнее классификацию облаков см. в Атласе облаков (PDF).
T - Температура воздуха - температура, измеренная на высоте 2 м над землей.
Td - Температура точки росы - температура, при понижении до которой содержащийся в воздухе водяной пар достигнет насыщения.
f - Относительная влажность воздуха - влажноcть воздуха, измеренная на высоте 2 м над землей.
Te - Эффективная температура - температура, которую ощущает одетый по сезону человек в тени. Характеристика душности погоды. При расчете учитывается влияние влажности воздуха и скорости ветра на теплоощущения человека.
Tes - Эффективная температура на солнце - температура, которую ощущает человек, с поправкой на солнечный нагрев. Характеристика знойности погоды. Зависит от высоты солнца над горизонтом, облачности и скорости ветра. Ночью, в пасмурную погоду, а также при ветре 12 м/с и более поправка равна нулю.
P - Атмосферное давление - приведенное к уровню моря атмосферное давление.
Po - Атмосферное давление - измеренное на уровне метеостанции атмосферное давление.
Tmin - Минимальная температура - минимум температуры воздуха на высоте 2 м над землей.
Tmax - Максимальная температура - максимум температуры воздуха на высоте 2 м над землей.
R - Количество осадков - Количество выпавших осадков за период времени, мм. При наведении курсора мыши на число - период времени, за который выпало указанное количество осадков.
R24 - Количество осадков - Количество выпавших осадков за 24 часа, мм.
S - Снежный покров - Высота снежного покрова, см. При наведении курсора мыши на число - состояние снежного покрова и степень покрытия местности в баллах.